Time,TemperatureF,DewpointF,PressureIn,WindDirection,WindDirectionDegrees,WindSpeedMPH,WindSpeedGustMPH,Humidity,HourlyPrecipIn,Conditions,Clouds,dailyrainin,SolarRadiationWatts/m^2,SoftwareType,DateUTC
2013-01-31 00:06:00,52.2,48.8,29.71,WSW,242,7.0,12.0,88,0.00,,---,0.00,0.00,VWS V14.01,2013-01-31 05:06:00,
2013-01-31 00:16:00,52.2,48.5,29.71,WSW,245,7.0,13.0,87,0.00,,---,0.00,0.00,VWS V14.01,2013-01-31 05:16:00,
2013-01-31 00:19:00,52.3,48.5,29.71,WSW,256,10.0,11.0,87,0.00,,---,0.00,0.00,VWS V14.01,2013-01-31 05:19:00,
2013-01-31 00:21:00,52.3,48.5,29.72,SW,236,7.0,12.0,87,0.00,,---,0.00,0.00,VWS V14.01,2013-01-31 05:21:00,
2013-01-31 00:26:00,52.3,48.2,29.72,WSW,250,7.0,7.0,86,0.00,,---,0.00,0.00,VWS V14.01,2013-01-31 05:26:00,
2013-01-31 00:32:00,52.4,48.3,29.71,WSW,246,7.0,9.0,86,0.00,,---,0.00,0.00,VWS V14.01,2013-01-31 05:32:00,
2013-01-31 00:37:00,52.5,48.1,29.71,WSW,250,7.0,8.0,85,0.00,,---,0.00,0.00,VWS V14.01,2013-01-31 05:37:00,
2013-01-31 00:42:00,52.5,48.1,29.71,WSW,244,8.0,11.0,85,0.00,,---,0.00,0.00,VWS V14.01,2013-01-31 05:42:00,
2013-01-31 00:47:00,52.6,47.9,29.71,West,262,9.0,13.0,84,0.00,,---,0.00,0.00,VWS V14.01,2013-01-31 05:47:00,
2013-01-31 00:52:00,52.7,47.7,29.71,West,260,10.0,10.0,83,0.01,,---,0.01,0.00,VWS V14.01,2013-01-31 05:52:00,
2013-01-31 00:57:00,52.8,47.5,29.71,WSW,256,14.0,14.0,82,0.01,,---,0.01,0.00,VWS V14.01,2013-01-31 05:57:00,
2013-01-31 01:02:00,53.0,47.7,29.72,WSW,254,15.0,15.0,82,0.01,,---,0.01,0.00,VWS V14.01,2013-01-31 06:02:00,
2013-01-31 01:07:00,53.1,47.8,29.72,WSW,255,13.0,17.0,82,0.01,,---,0.01,0.00,VWS V14.01,2013-01-31 06:07:00,
2013-01-31 01:12:00,53.2,47.9,29.72,WSW,254,10.0,14.0,82,0.01,,---,0.01,0.00,VWS V14.01,2013-01-31 06:12:00,
2013-01-31 01:17:00,53.3,47.6,29.72,WSW,258,12.0,12.0,81,0.01,,---,0.01,0.00,VWS V14.01,2013-01-31 06:17:00,
2013-01-31 01:22:00,53.3,48.0,29.72,WSW,248,10.0,10.0,82,0.01,,---,0.01,0.00,VWS V14.01,2013-01-31 06:22:00,
2013-01-31 01:27:00,53.2,47.9,29.73,SW,227,9.0,13.0,82,0.01,,---,0.01,0.00,VWS V14.01,2013-01-31 06:27:00,
2013-01-31 01:32:00,53.2,47.9,29.73,WSW,242,8.0,12.0,82,0.01,,---,0.01,0.00,VWS V14.01,2013-01-31 06:32:00,
2013-01-31 01:38:00,53.1,47.8,29.73,WSW,249,7.0,15.0,82,0.01,,---,0.01,0.00,VWS V14.01,2013-01-31 06:38:00,
2013-01-31 01:43:00,53.1,48.1,29.74,SSW,207,12.0,14.0,83,0.01,,---,0.01,0.00,VWS V14.01,2013-01-31 06:43:00,
2013-01-31 01:48:00,53.0,47.7,29.74,WSW,239,8.0,9.0,82,0.01,,---,0.01,0.00,VWS V14.01,2013-01-31 06:48:00,
2013-01-31 01:53:00,52.9,47.6,29.73,West,263,9.0,15.0,82,0.00,,---,0.01,0.00,VWS V14.01,2013-01-31 06:53:00,
2013-01-31 01:58:00,52.8,47.5,29.73,WSW,239,8.0,11.0,82,0.00,,---,0.01,0.00,VWS V14.01,2013-01-31 06:58:00,
2013-01-31 02:03:00,52.8,47.5,29.74,West,269,17.0,17.0,82,0.00,,---,0.01,0.00,VWS V14.01,2013-01-31 07:03:00,
2013-01-31 02:08:00,52.8,47.5,29.74,SW,236,11.0,16.0,82,0.00,,---,0.01,0.00,VWS V14.01,2013-01-31 07:08:00,
2013-01-31 02:13:00,53.0,47.3,29.75,SW,235,13.0,15.0,81,0.00,,---,0.01,0.00,VWS V14.01,2013-01-31 07:13:00,
2013-01-31 02:18:00,53.0,47.3,29.75,WSW,240,13.0,20.0,81,0.00,,---,0.01,0.00,VWS V14.01,2013-01-31 07:18:00,
2013-01-31 02:23:00,52.9,47.2,29.75,WSW,248,9.0,16.0,81,0.00,,---,0.01,0.00,VWS V14.01,2013-01-31 07:23:00,
2013-01-31 02:28:00,52.9,46.9,29.75,WSW,248,10.0,16.0,80,0.00,,---,0.01,0.00,VWS V14.01,2013-01-31 07:28:00,
2013-01-31 02:54:00,51.7,41.9,29.77,West,278,7.0,22.0,69,0.00,,---,0.01,0.00,VWS V14.01,2013-01-31 07:54:00,
2013-01-31 03:13:00,50.4,38.7,29.79,West,270,14.0,27.0,64,0.00,,---,0.01,0.00,VWS V14.01,2013-01-31 08:13:00,
2013-01-31 03:26:00,49.6,39.1,29.81,West,267,13.0,24.0,67,0.00,,---,0.01,0.00,VWS V14.01,2013-01-31 08:26:00,
2013-01-31 03:31:00,49.2,39.1,29.82,West,277,22.0,24.0,68,0.00,,---,0.01,0.00,VWS V14.01,2013-01-31 08:31:00,
2013-01-31 03:36:00,48.7,38.6,29.82,West,275,24.0,27.0,68,0.00,,---,0.01,0.00,VWS V14.01,2013-01-31 08:36:00,
2013-01-31 03:41:00,48.3,38.6,29.83,WSW,254,18.0,24.0,69,0.00,,---,0.01,0.00,VWS V14.01,2013-01-31 08:41:00,
2013-01-31 03:54:00,47.6,37.6,29.83,NW,304,19.0,19.0,68,0.00,,---,0.01,0.00,VWS V14.01,2013-01-31 08:54:00,
2013-01-31 03:59:00,47.4,37.0,29.84,West,267,17.0,21.0,67,0.00,,---,0.01,0.00,VWS V14.01,2013-01-31 08:59:00,
2013-01-31 04:04:00,47.2,36.0,29.84,WSW,257,11.0,25.0,65,0.00,,---,0.01,0.00,VWS V14.01,2013-01-31 09:04:00,
2013-01-31 04:09:00,47.0,36.2,29.84,West,279,14.0,17.0,66,0.00,,---,0.01,0.00,VWS V14.01,2013-01-31 09:09:00,
2013-01-31 04:14:00,46.8,36.0,29.84,West,277,9.0,21.0,66,0.00,,---,0.01,0.00,VWS V14.01,2013-01-31 09:14:00,
2013-01-31 04:20:00,46.7,35.6,29.84,West,261,20.0,25.0,65,0.00,,---,0.01,0.00,VWS V14.01,2013-01-31 09:20:00,
2013-01-31 04:25:00,46.7,35.2,29.85,WSW,258,12.0,24.0,64,0.00,,---,0.01,0.00,VWS V14.01,2013-01-31 09:25:00,
2013-01-31 04:30:00,46.5,35.4,29.84,WSW,249,5.0,18.0,65,0.00,,---,0.01,0.00,VWS V14.01,2013-01-31 09:30:00,
2013-01-31 04:35:00,46.3,35.2,29.85,WSW,252,19.0,23.0,65,0.00,,---,0.01,0.00,VWS V14.01,2013-01-31 09:35:00,
2013-01-31 04:40:00,46.2,35.1,29.85,WSW,255,9.0,18.0,65,0.00,,---,0.01,0.00,VWS V14.01,2013-01-31 09:40:00,
2013-01-31 04:45:00,46.0,35.3,29.85,WSW,244,14.0,24.0,66,0.00,,---,0.01,0.00,VWS V14.01,2013-01-31 09:45:00,
2013-01-31 04:50:00,45.9,35.2,29.85,West,262,12.0,18.0,66,0.00,,---,0.01,0.00,VWS V14.01,2013-01-31 09:50:00,
2013-01-31 04:55:00,45.7,34.6,29.85,WSW,257,6.0,20.0,65,0.00,,---,0.01,0.00,VWS V14.01,2013-01-31 09:55:00,
2013-01-31 05:00:00,45.6,34.5,29.85,WSW,248,12.0,22.0,65,0.00,,---,0.01,0.00,VWS V14.01,2013-01-31 10:00:00,
2013-01-31 05:05:00,45.4,34.3,29.86,West,259,17.0,18.0,65,0.00,,---,0.01,0.00,VWS V14.01,2013-01-31 10:05:00,
2013-01-31 05:10:00,45.3,33.9,29.86,WSW,257,17.0,25.0,64,0.00,,---,0.01,0.00,VWS V14.01,2013-01-31 10:10:00,
2013-01-31 05:15:00,45.3,33.5,29.86,West,260,15.0,24.0,63,0.00,,---,0.01,0.00,VWS V14.01,2013-01-31 10:15:00,
2013-01-31 05:20:00,45.2,33.8,29.86,WSW,255,10.0,19.0,64,0.00,,---,0.01,0.00,VWS V14.01,2013-01-31 10:20:00,
2013-01-31 05:25:00,45.0,33.6,29.86,WSW,254,8.0,26.0,64,0.00,,---,0.01,0.00,VWS V14.01,2013-01-31 10:25:00,
2013-01-31 05:30:00,44.8,33.8,29.86,West,267,7.0,16.0,65,0.00,,---,0.01,0.00,VWS V14.01,2013-01-31 10:30:00,
2013-01-31 05:35:00,44.5,33.9,29.87,WSW,252,16.0,18.0,66,0.00,,---,0.01,0.00,VWS V14.01,2013-01-31 10:35:00,
2013-01-31 05:40:00,44.4,34.1,29.88,West,275,9.0,18.0,67,0.00,,---,0.01,0.00,VWS V14.01,2013-01-31 10:40:00,
2013-01-31 05:45:00,44.2,33.6,29.88,WSW,252,17.0,26.0,66,0.00,,---,0.01,0.00,VWS V14.01,2013-01-31 10:45:00,
2013-01-31 05:50:00,44.2,33.6,29.88,WNW,285,7.0,26.0,66,0.00,,---,0.01,0.00,VWS V14.01,2013-01-31 10:50:00,
2013-01-31 05:55:00,44.2,32.8,29.89,WSW,252,15.0,30.0,64,0.00,,---,0.01,0.00,VWS V14.01,2013-01-31 10:55:00,
2013-01-31 06:01:00,44.0,32.6,29.89,WSW,242,17.0,30.0,64,0.00,,---,0.01,0.00,VWS V14.01,2013-01-31 11:01:00,
2013-01-31 06:06:00,43.8,32.4,29.89,West,261,14.0,20.0,64,0.00,,---,0.01,0.00,VWS V14.01,2013-01-31 11:06:00,
2013-01-31 06:11:00,43.6,31.9,29.90,West,267,13.0,21.0,63,0.00,,---,0.01,0.00,VWS V14.01,2013-01-31 11:11:00,
2013-01-31 06:16:00,43.5,31.4,29.90,West,267,15.0,24.0,62,0.00,,---,0.01,0.00,VWS V14.01,2013-01-31 11:16:00,
2013-01-31 06:21:00,43.3,31.6,29.90,West,266,7.0,16.0,63,0.00,,---,0.01,0.00,VWS V14.01,2013-01-31 11:21:00,
2013-01-31 06:26:00,43.1,31.4,29.91,West,269,11.0,18.0,63,0.00,,---,0.01,0.00,VWS V14.01,2013-01-31 11:26:00,
2013-01-31 06:31:00,42.9,31.6,29.92,West,263,6.0,15.0,64,0.00,,---,0.01,0.00,VWS V14.01,2013-01-31 11:31:00,
2013-01-31 06:36:00,42.8,31.5,29.92,West,279,9.0,20.0,64,0.00,,---,0.01,0.00,VWS V14.01,2013-01-31 11:36:00,
2013-01-31 06:41:00,42.6,31.3,29.93,WNW,292,5.0,12.0,64,0.00,,---,0.01,0.00,VWS V14.01,2013-01-31 11:41:00,
2013-01-31 06:46:00,42.5,30.8,29.94,West,276,6.0,18.0,63,0.00,,---,0.01,0.00,VWS V14.01,2013-01-31 11:46:00,
2013-01-31 06:51:00,42.4,30.7,29.94,WNW,288,14.0,19.0,63,0.00,,---,0.01,0.00,VWS V14.01,2013-01-31 11:51:00,
2013-01-31 06:56:00,42.2,30.5,29.94,WSW,250,6.0,15.0,63,0.00,,---,0.01,0.00,VWS V14.01,2013-01-31 11:56:00,
2013-01-31 07:01:00,42.0,30.7,29.95,West,273,12.0,13.0,64,0.00,,---,0.01,0.00,VWS V14.01,2013-01-31 12:01:00,
2013-01-31 07:06:00,41.8,29.8,29.95,NW,313,10.0,19.0,62,0.00,,---,0.01,0.00,VWS V14.01,2013-01-31 12:06:00,
2013-01-31 07:11:00,41.6,29.6,29.95,West,271,9.0,17.0,62,0.00,,---,0.01,0.00,VWS V14.01,2013-01-31 12:11:00,
2013-01-31 07:16:00,41.4,29.8,29.95,West,266,10.0,14.0,63,0.00,,---,0.01,0.00,VWS V14.01,2013-01-31 12:16:00,
2013-01-31 07:21:00,41.2,29.2,29.94,WNW,300,14.0,15.0,62,0.00,,---,0.01,5.00,VWS V14.01,2013-01-31 12:21:00,
2013-01-31 07:27:00,41.0,29.0,29.94,West,276,9.0,10.0,62,0.00,,---,0.01,7.00,VWS V14.01,2013-01-31 12:27:00,
2013-01-31 07:32:00,40.9,28.9,29.95,West,271,12.0,12.0,62,0.00,,---,0.01,11.00,VWS V14.01,2013-01-31 12:32:00,
2013-01-31 07:37:00,40.7,28.7,29.96,WSW,255,10.0,10.0,62,0.00,,---,0.01,12.00,VWS V14.01,2013-01-31 12:37:00,
2013-01-31 07:42:00,40.6,28.6,29.97,West,270,10.0,16.0,62,0.00,,---,0.01,16.00,VWS V14.01,2013-01-31 12:42:00,
2013-01-31 07:47:00,40.6,28.6,29.97,WSW,258,5.0,7.0,62,0.00,,---,0.01,18.00,VWS V14.01,2013-01-31 12:47:00,
2013-01-31 07:52:00,40.5,28.5,29.97,West,271,11.0,11.0,62,0.00,,---,0.01,19.00,VWS V14.01,2013-01-31 12:52:00,
2013-01-31 07:57:00,40.5,28.5,29.98,WSW,257,11.0,11.0,62,0.00,,---,0.01,23.00,VWS V14.01,2013-01-31 12:57:00,
2013-01-31 08:02:00,40.6,28.6,29.98,West,261,9.0,13.0,62,0.00,,---,0.01,25.00,VWS V14.01,2013-01-31 13:02:00,
2013-01-31 08:07:00,40.7,28.7,29.99,West,268,11.0,12.0,62,0.00,,---,0.01,26.00,VWS V14.01,2013-01-31 13:07:00,
2013-01-31 08:12:00,40.9,28.5,29.99,West,265,19.0,21.0,61,0.00,,---,0.01,28.00,VWS V14.01,2013-01-31 13:12:00,
2013-01-31 08:17:00,41.0,28.6,29.99,WSW,258,8.0,10.0,61,0.00,,---,0.01,30.00,VWS V14.01,2013-01-31 13:17:00,
2013-01-31 08:22:00,41.1,28.7,29.99,WSW,249,11.0,12.0,61,0.00,,---,0.01,42.00,VWS V14.01,2013-01-31 13:22:00,
2013-01-31 08:27:00,41.3,28.9,29.99,WNW,297,7.0,9.0,61,0.00,,---,0.01,67.00,VWS V14.01,2013-01-31 13:27:00,
2013-01-31 08:32:00,41.5,29.1,30.00,West,280,14.0,15.0,61,0.00,,---,0.01,95.00,VWS V14.01,2013-01-31 13:32:00,
2013-01-31 08:37:00,41.6,28.8,30.00,West,275,13.0,17.0,60,0.00,,---,0.01,127.00,VWS V14.01,2013-01-31 13:37:00,
2013-01-31 08:42:00,41.8,29.0,30.00,West,265,7.0,10.0,60,0.00,,---,0.01,148.00,VWS V14.01,2013-01-31 13:42:00,
2013-01-31 08:47:00,42.1,29.2,30.00,WSW,248,13.0,13.0,60,0.00,,---,0.01,167.00,VWS V14.01,2013-01-31 13:47:00,
2013-01-31 08:53:00,42.3,29.0,30.00,West,275,15.0,18.0,59,0.00,,---,0.01,199.00,VWS V14.01,2013-01-31 13:53:00,
2013-01-31 08:58:00,42.5,28.8,30.00,WNW,286,13.0,19.0,58,0.00,,---,0.01,246.00,VWS V14.01,2013-01-31 13:58:00,
2013-01-31 09:03:00,42.7,29.4,30.01,West,280,13.0,14.0,59,0.00,,---,0.01,295.00,VWS V14.01,2013-01-31 14:03:00,
2013-01-31 09:08:00,42.9,29.6,30.01,West,260,5.0,6.0,59,0.00,,---,0.01,308.00,VWS V14.01,2013-01-31 14:08:00,
2013-01-31 09:13:00,43.4,29.6,30.01,West,259,6.0,18.0,58,0.00,,---,0.01,288.00,VWS V14.01,2013-01-31 14:13:00,
2013-01-31 09:18:00,43.7,30.3,30.01,WNW,299,13.0,15.0,59,0.00,,---,0.01,294.00,VWS V14.01,2013-01-31 14:18:00,
2013-01-31 09:23:00,43.8,30.0,30.01,NW,321,4.0,9.0,58,0.00,,---,0.01,332.00,VWS V14.01,2013-01-31 14:23:00,
2013-01-31 09:28:00,44.1,29.9,30.01,West,277,18.0,20.0,57,0.00,,---,0.01,348.00,VWS V14.01,2013-01-31 14:28:00,
2013-01-31 09:33:00,44.1,29.9,30.01,WNW,288,4.0,12.0,57,0.00,,---,0.01,330.00,VWS V14.01,2013-01-31 14:33:00,
2013-01-31 09:38:00,44.3,29.2,30.01,West,273,9.0,18.0,55,0.00,,---,0.01,279.00,VWS V14.01,2013-01-31 14:38:00,
2013-01-31 09:43:00,44.5,29.4,30.01,WNW,302,17.0,17.0,55,0.00,,---,0.01,352.00,VWS V14.01,2013-01-31 14:43:00,
2013-01-31 09:48:00,44.6,29.9,30.01,West,278,8.0,11.0,56,0.00,,---,0.01,408.00,VWS V14.01,2013-01-31 14:48:00,
2013-01-31 09:54:00,45.1,30.8,30.01,WNW,284,4.0,11.0,57,0.00,,---,0.01,439.00,VWS V14.01,2013-01-31 14:54:00,
2013-01-31 09:59:00,45.6,30.8,30.02,West,259,11.0,17.0,56,0.00,,---,0.01,473.00,VWS V14.01,2013-01-31 14:59:00,
2013-01-31 10:04:00,45.6,29.5,30.03,WNW,286,8.0,16.0,53,0.00,,---,0.01,503.00,VWS V14.01,2013-01-31 15:04:00,
2013-01-31 10:09:00,45.6,29.5,30.03,WNW,286,8.0,14.0,53,0.00,,---,0.01,482.00,VWS V14.01,2013-01-31 15:09:00,
2013-01-31 10:14:00,46.1,30.9,30.03,WSW,248,11.0,15.0,55,0.00,,---,0.01,446.00,VWS V14.01,2013-01-31 15:14:00,
2013-01-31 10:19:00,46.3,29.6,30.02,WSW,256,6.0,17.0,52,0.00,,---,0.01,510.00,VWS V14.01,2013-01-31 15:19:00,
2013-01-31 10:24:00,46.6,30.4,30.02,WSW,251,17.0,17.0,53,0.00,,---,0.01,580.00,VWS V14.01,2013-01-31 15:24:00,
2013-01-31 10:29:00,46.7,30.0,30.03,West,279,6.0,12.0,52,0.00,,---,0.01,575.00,VWS V14.01,2013-01-31 15:29:00,
2013-01-31 10:34:00,46.9,30.2,30.03,WSW,250,9.0,17.0,52,0.00,,---,0.01,592.00,VWS V14.01,2013-01-31 15:34:00,
2013-01-31 10:40:00,47.0,30.3,30.03,West,274,4.0,13.0,52,0.00,,---,0.01,589.00,VWS V14.01,2013-01-31 15:40:00,
2013-01-31 10:45:00,47.3,30.6,30.03,West,281,10.0,13.0,52,0.00,,---,0.01,568.00,VWS V14.01,2013-01-31 15:45:00,
2013-01-31 10:50:00,47.8,31.0,30.03,West,277,8.0,19.0,52,0.00,,---,0.01,548.00,VWS V14.01,2013-01-31 15:50:00,
2013-01-31 10:55:00,48.2,29.5,30.03,West,272,7.0,15.0,48,0.00,,---,0.01,527.00,VWS V14.01,2013-01-31 15:55:00,
2013-01-31 11:00:00,48.3,29.5,30.03,WNW,295,6.0,14.0,48,0.00,,---,0.01,519.00,VWS V14.01,2013-01-31 16:00:00,
2013-01-31 11:05:00,48.5,29.7,30.03,WNW,300,9.0,15.0,48,0.00,,---,0.01,533.00,VWS V14.01,2013-01-31 16:05:00,
2013-01-31 11:10:00,48.7,28.9,30.03,WSW,248,13.0,18.0,46,0.00,,---,0.01,568.00,VWS V14.01,2013-01-31 16:10:00,
2013-01-31 11:15:00,48.6,27.7,30.03,West,278,8.0,20.0,44,0.00,,---,0.01,615.00,VWS V14.01,2013-01-31 16:15:00,
2013-01-31 11:20:00,48.7,28.3,30.03,NW,309,10.0,19.0,45,0.00,,---,0.01,654.00,VWS V14.01,2013-01-31 16:20:00,
2013-01-31 11:25:00,49.0,28.6,30.03,West,276,10.0,13.0,45,0.00,,---,0.01,680.00,VWS V14.01,2013-01-31 16:25:00,
2013-01-31 11:30:00,49.3,29.4,30.03,WNW,297,7.0,14.0,46,0.00,,---,0.01,649.00,VWS V14.01,2013-01-31 16:30:00,
2013-01-31 11:35:00,49.5,28.5,30.03,West,259,8.0,18.0,44,0.00,,---,0.01,589.00,VWS V14.01,2013-01-31 16:35:00,
2013-01-31 11:40:00,49.9,29.4,30.03,West,261,5.0,14.0,45,0.00,,---,0.01,552.00,VWS V14.01,2013-01-31 16:40:00,
2013-01-31 11:45:00,50.6,30.1,30.03,WNW,286,17.0,19.0,45,0.00,,---,0.01,471.00,VWS V14.01,2013-01-31 16:45:00,
2013-01-31 11:51:00,50.4,28.2,30.03,WNW,292,16.0,19.0,42,0.00,,---,0.01,429.00,VWS V14.01,2013-01-31 16:51:00,
2013-01-31 11:56:00,50.3,28.1,30.03,WSW,256,14.0,20.0,42,0.00,,---,0.01,485.00,VWS V14.01,2013-01-31 16:56:00,
2013-01-31 12:01:00,50.4,28.8,30.03,West,281,5.0,16.0,43,0.00,,---,0.01,504.00,VWS V14.01,2013-01-31 17:01:00,
2013-01-31 12:06:00,50.9,28.6,30.03,West,278,8.0,18.0,42,0.00,,---,0.01,640.00,VWS V14.01,2013-01-31 17:06:00,
2013-01-31 12:11:00,51.0,28.1,30.03,West,271,8.0,14.0,41,0.00,,---,0.01,717.00,VWS V14.01,2013-01-31 17:11:00,
2013-01-31 12:16:00,51.4,29.1,30.03,WNW,298,5.0,12.0,42,0.00,,---,0.01,722.00,VWS V14.01,2013-01-31 17:16:00,
2013-01-31 12:21:00,51.5,27.4,30.03,West,270,15.0,18.0,39,0.00,,---,0.01,722.00,VWS V14.01,2013-01-31 17:21:00,
2013-01-31 12:26:00,51.6,28.1,30.03,West,271,14.0,23.0,40,0.00,,---,0.01,726.00,VWS V14.01,2013-01-31 17:26:00,
2013-01-31 12:31:00,51.6,27.5,30.03,WSW,256,10.0,20.0,39,0.00,,---,0.01,724.00,VWS V14.01,2013-01-31 17:31:00,
2013-01-31 12:36:00,51.7,26.3,30.03,West,281,16.0,23.0,37,0.00,,---,0.01,729.00,VWS V14.01,2013-01-31 17:36:00,
2013-01-31 12:41:00,51.5,26.1,30.02,West,269,11.0,19.0,37,0.00,,---,0.01,726.00,VWS V14.01,2013-01-31 17:41:00,
2013-01-31 12:46:00,51.6,27.5,30.02,West,262,13.0,21.0,39,0.00,,---,0.01,724.00,VWS V14.01,2013-01-31 17:46:00,
2013-01-31 12:51:00,52.0,25.9,30.02,West,274,11.0,24.0,36,0.00,,---,0.01,726.00,VWS V14.01,2013-01-31 17:51:00,
2013-01-31 12:56:00,52.0,25.9,30.02,WSW,256,9.0,19.0,36,0.00,,---,0.01,724.00,VWS V14.01,2013-01-31 17:56:00,
2013-01-31 13:01:00,52.4,26.9,30.02,West,265,9.0,18.0,37,0.00,,---,0.01,715.00,VWS V14.01,2013-01-31 18:01:00,
2013-01-31 13:06:00,52.4,25.6,30.02,West,277,10.0,20.0,35,0.00,,---,0.01,714.00,VWS V14.01,2013-01-31 18:06:00,
2013-01-31 13:11:00,52.4,26.2,30.01,West,275,12.0,14.0,36,0.00,,---,0.01,710.00,VWS V14.01,2013-01-31 18:11:00,
2013-01-31 13:17:00,52.5,26.3,30.02,WSW,255,18.0,18.0,36,0.00,,---,0.01,705.00,VWS V14.01,2013-01-31 18:17:00,
2013-01-31 13:22:00,52.6,27.1,30.02,West,265,9.0,12.0,37,0.00,,---,0.01,703.00,VWS V14.01,2013-01-31 18:22:00,
2013-01-31 13:27:00,53.3,27.7,30.02,West,274,11.0,11.0,37,0.00,,---,0.01,696.00,VWS V14.01,2013-01-31 18:27:00,
2013-01-31 13:32:00,53.6,27.3,30.02,West,262,9.0,16.0,36,0.00,,---,0.01,689.00,VWS V14.01,2013-01-31 18:32:00,
2013-01-31 13:37:00,53.7,28.1,30.01,NW,314,10.0,13.0,37,0.00,,---,0.01,686.00,VWS V14.01,2013-01-31 18:37:00,
2013-01-31 13:42:00,53.7,27.4,30.02,West,271,13.0,15.0,36,0.00,,---,0.01,677.00,VWS V14.01,2013-01-31 18:42:00,
2013-01-31 13:47:00,53.7,26.7,30.01,West,267,23.0,23.0,35,0.00,,---,0.01,663.00,VWS V14.01,2013-01-31 18:47:00,
2013-01-31 13:52:00,53.4,25.8,30.01,West,279,20.0,20.0,34,0.00,,---,0.01,647.00,VWS V14.01,2013-01-31 18:52:00,
2013-01-31 13:57:00,53.3,26.4,30.01,West,265,10.0,11.0,35,0.00,,---,0.01,628.00,VWS V14.01,2013-01-31 18:57:00,
2013-01-31 14:02:00,53.7,26.7,30.01,West,267,9.0,11.0,35,0.00,,---,0.01,608.00,VWS V14.01,2013-01-31 19:02:00,
2013-01-31 14:07:00,54.1,27.1,30.01,WSW,252,12.0,18.0,35,0.00,,---,0.01,575.00,VWS V14.01,2013-01-31 19:07:00,
2013-01-31 14:12:00,54.2,27.2,30.01,West,281,15.0,16.0,35,0.00,,---,0.01,519.00,VWS V14.01,2013-01-31 19:12:00,
2013-01-31 14:17:00,54.1,25.6,30.01,West,266,16.0,22.0,33,0.00,,---,0.01,396.00,VWS V14.01,2013-01-31 19:17:00,
2013-01-31 14:22:00,54.2,26.5,30.01,WNW,293,15.0,17.0,34,0.00,,---,0.01,411.00,VWS V14.01,2013-01-31 19:22:00,
2013-01-31 14:28:00,54.2,25.0,30.01,West,277,11.0,18.0,32,0.00,,---,0.01,457.00,VWS V14.01,2013-01-31 19:28:00,
2013-01-31 14:33:00,54.2,25.7,30.01,West,265,12.0,20.0,33,0.00,,---,0.01,475.00,VWS V14.01,2013-01-31 19:33:00,
2013-01-31 14:38:00,54.2,25.7,30.02,West,269,10.0,21.0,33,0.00,,---,0.01,462.00,VWS V14.01,2013-01-31 19:38:00,
2013-01-31 14:43:00,54.2,26.5,30.01,West,260,11.0,17.0,34,0.00,,---,0.01,446.00,VWS V14.01,2013-01-31 19:43:00,
2013-01-31 14:48:00,54.3,25.1,30.02,West,267,8.0,20.0,32,0.00,,---,0.01,439.00,VWS V14.01,2013-01-31 19:48:00,
2013-01-31 14:53:00,54.5,26.0,30.02,West,263,12.0,16.0,33,0.00,,---,0.01,434.00,VWS V14.01,2013-01-31 19:53:00,
2013-01-31 14:58:00,54.4,25.9,30.02,WSW,257,17.0,20.0,33,0.00,,---,0.01,431.00,VWS V14.01,2013-01-31 19:58:00,
2013-01-31 15:03:00,54.4,27.3,30.03,WSW,258,11.0,22.0,35,0.00,,---,0.01,432.00,VWS V14.01,2013-01-31 20:03:00,
2013-01-31 15:08:00,54.7,25.4,30.02,WSW,244,13.0,24.0,32,0.00,,---,0.01,434.00,VWS V14.01,2013-01-31 20:08:00,
2013-01-31 15:13:00,54.6,25.4,30.02,West,277,14.0,22.0,32,0.00,,---,0.01,438.00,VWS V14.01,2013-01-31 20:13:00,
2013-01-31 15:18:00,54.6,24.6,30.02,West,269,10.0,18.0,31,0.00,,---,0.01,438.00,VWS V14.01,2013-01-31 20:18:00,
2013-01-31 15:23:00,54.6,24.6,30.02,West,271,8.0,17.0,31,0.00,,---,0.01,436.00,VWS V14.01,2013-01-31 20:23:00,
2013-01-31 15:28:00,54.7,24.7,30.02,WSW,254,15.0,20.0,31,0.00,,---,0.01,202.00,VWS V14.01,2013-01-31 20:28:00,
2013-01-31 15:33:00,54.8,24.8,30.02,West,263,13.0,15.0,31,0.00,,---,0.01,403.00,VWS V14.01,2013-01-31 20:33:00,
2013-01-31 15:38:00,54.8,25.5,30.03,West,279,15.0,18.0,32,0.00,,---,0.01,420.00,VWS V14.01,2013-01-31 20:38:00,
2013-01-31 15:44:00,54.7,25.4,30.03,WSW,245,9.0,22.0,32,0.00,,---,0.01,410.00,VWS V14.01,2013-01-31 20:44:00,
2013-01-31 15:49:00,54.6,25.4,30.03,West,262,14.0,23.0,32,0.00,,---,0.01,394.00,VWS V14.01,2013-01-31 20:49:00,
2013-01-31 15:54:00,54.6,25.4,30.04,West,262,14.0,21.0,32,0.00,,---,0.01,376.00,VWS V14.01,2013-01-31 20:54:00,
2013-01-31 15:59:00,54.6,24.6,30.04,WNW,292,15.0,19.0,31,0.00,,---,0.01,338.00,VWS V14.01,2013-01-31 20:59:00,
2013-01-31 16:04:00,54.2,25.0,30.04,West,259,14.0,22.0,32,0.00,,---,0.01,276.00,VWS V14.01,2013-01-31 21:04:00,
2013-01-31 16:09:00,54.0,24.8,30.04,West,278,10.0,21.0,32,0.00,,---,0.01,288.00,VWS V14.01,2013-01-31 21:09:00,
2013-01-31 16:14:00,54.1,24.9,30.04,West,278,14.0,16.0,32,0.00,,---,0.01,308.00,VWS V14.01,2013-01-31 21:14:00,
2013-01-31 16:19:00,54.1,25.6,30.05,West,275,10.0,17.0,33,0.00,,---,0.01,287.00,VWS V14.01,2013-01-31 21:19:00,
2013-01-31 16:24:00,54.2,25.0,30.05,West,261,16.0,18.0,32,0.00,,---,0.01,265.00,VWS V14.01,2013-01-31 21:24:00,
2013-01-31 16:29:00,54.1,24.9,30.05,West,276,10.0,22.0,32,0.00,,---,0.01,243.00,VWS V14.01,2013-01-31 21:29:00,
2013-01-31 16:34:00,53.9,24.7,30.05,WSW,252,14.0,18.0,32,0.00,,---,0.01,221.00,VWS V14.01,2013-01-31 21:34:00,
2013-01-31 16:39:00,53.6,23.7,30.05,WSW,242,19.0,24.0,31,0.00,,---,0.01,199.00,VWS V14.01,2013-01-31 21:39:00,
2013-01-31 16:44:00,53.4,25.0,30.05,West,271,10.0,14.0,33,0.00,,---,0.01,176.00,VWS V14.01,2013-01-31 21:44:00,
2013-01-31 16:49:00,53.3,25.0,30.05,WSW,251,8.0,17.0,33,0.00,,---,0.01,158.00,VWS V14.01,2013-01-31 21:49:00,
2013-01-31 16:54:00,53.2,24.9,30.05,West,261,11.0,18.0,33,0.00,,---,0.01,135.00,VWS V14.01,2013-01-31 21:54:00,
2013-01-31 16:59:00,53.1,24.8,30.05,WSW,249,11.0,13.0,33,0.00,,---,0.01,116.00,VWS V14.01,2013-01-31 21:59:00,
2013-01-31 17:04:00,53.0,24.7,30.05,WSW,258,10.0,17.0,33,0.00,,---,0.01,97.00,VWS V14.01,2013-01-31 22:04:00,
2013-01-31 17:09:00,52.8,24.5,30.05,West,277,6.0,19.0,33,0.00,,---,0.01,79.00,VWS V14.01,2013-01-31 22:09:00,
2013-01-31 17:14:00,52.6,24.3,30.06,West,268,7.0,19.0,33,0.00,,---,0.01,63.00,VWS V14.01,2013-01-31 22:14:00,
2013-01-31 17:19:00,52.4,24.2,30.06,NW,314,8.0,17.0,33,0.00,,---,0.01,49.00,VWS V14.01,2013-01-31 22:19:00,
2013-01-31 17:24:00,52.2,24.7,30.06,WNW,296,6.0,15.0,34,0.00,,---,0.01,28.00,VWS V14.01,2013-01-31 22:24:00,
2013-01-31 17:29:00,52.1,24.6,30.06,West,266,4.0,13.0,34,0.00,,---,0.01,23.00,VWS V14.01,2013-01-31 22:29:00,
2013-01-31 17:34:00,51.9,25.8,30.06,West,272,9.0,11.0,36,0.00,,---,0.01,19.00,VWS V14.01,2013-01-31 22:34:00,
2013-01-31 17:40:00,51.6,24.2,30.06,West,271,10.0,21.0,34,0.00,,---,0.01,16.00,VWS V14.01,2013-01-31 22:40:00,
2013-01-31 17:45:00,51.2,25.2,30.06,WSW,257,7.0,14.0,36,0.00,,---,0.01,12.00,VWS V14.01,2013-01-31 22:45:00,
2013-01-31 17:50:00,50.9,24.2,30.06,West,268,8.0,14.0,35,0.00,,---,0.01,9.00,VWS V14.01,2013-01-31 22:50:00,
2013-01-31 17:55:00,50.5,24.6,30.07,WSW,240,12.0,12.0,36,0.00,,---,0.01,7.00,VWS V14.01,2013-01-31 22:55:00,
2013-01-31 18:00:00,50.1,24.9,30.07,West,260,10.0,12.0,37,0.00,,---,0.01,5.00,VWS V14.01,2013-01-31 23:00:00,
2013-01-31 18:05:00,49.8,25.2,30.08,West,265,8.0,9.0,38,0.00,,---,0.01,0.00,VWS V14.01,2013-01-31 23:05:00,
2013-01-31 18:10:00,49.5,25.0,30.08,WNW,283,2.0,9.0,38,0.00,,---,0.01,0.00,VWS V14.01,2013-01-31 23:10:00,
2013-01-31 18:15:00,49.2,25.3,30.08,West,261,5.0,7.0,39,0.00,,---,0.01,0.00,VWS V14.01,2013-01-31 23:15:00,
2013-01-31 18:20:00,49.0,25.1,30.09,West,275,3.0,7.0,39,0.00,,---,0.01,0.00,VWS V14.01,2013-01-31 23:20:00,
2013-01-31 18:25:00,48.7,25.5,30.09,West,271,3.0,7.0,40,0.00,,---,0.01,0.00,VWS V14.01,2013-01-31 23:25:00,
2013-01-31 18:30:00,48.5,25.3,30.10,West,273,3.0,7.0,40,0.00,,---,0.01,0.00,VWS V14.01,2013-01-31 23:30:00,
2013-01-31 18:35:00,48.2,25.6,30.10,West,262,7.0,11.0,41,0.00,,---,0.01,0.00,VWS V14.01,2013-01-31 23:35:00,
2013-01-31 18:40:00,48.1,25.5,30.10,West,277,5.0,8.0,41,0.00,,---,0.01,0.00,VWS V14.01,2013-01-31 23:40:00,
2013-01-31 18:45:00,48.0,25.4,30.10,West,270,3.0,9.0,41,0.00,,---,0.01,0.00,VWS V14.01,2013-01-31 23:45:00,
2013-01-31 18:50:00,47.9,25.9,30.10,West,270,4.0,6.0,42,0.00,,---,0.01,0.00,VWS V14.01,2013-01-31 23:50:00,
2013-01-31 18:55:00,47.6,25.7,30.10,West,270,3.0,6.0,42,0.00,,---,0.01,0.00,VWS V14.01,2013-01-31 23:55:00,
2013-01-31 19:00:00,47.5,26.1,30.11,West,270,4.0,5.0,43,0.00,,---,0.01,0.00,VWS V14.01,2013-02-01 00:00:00,
2013-01-31 19:05:00,47.2,26.4,30.11,West,264,3.0,4.0,44,0.00,,---,0.01,0.00,VWS V14.01,2013-02-01 00:05:00,
2013-01-31 19:10:00,46.9,26.1,30.11,West,263,0.0,5.0,44,0.00,,---,0.01,0.00,VWS V14.01,2013-02-01 00:10:00,
2013-01-31 19:15:00,46.7,26.0,30.11,WSW,250,0.0,5.0,44,0.00,,---,0.01,0.00,VWS V14.01,2013-02-01 00:15:00,
2013-01-31 19:20:00,46.6,26.4,30.10,WSW,250,0.0,0.0,45,0.00,,---,0.01,0.00,VWS V14.01,2013-02-01 00:20:00,
2013-01-31 19:26:00,46.3,26.1,30.10,WSW,250,0.0,3.0,45,0.00,,---,0.01,0.00,VWS V14.01,2013-02-01 00:26:00,
2013-01-31 19:31:00,46.0,26.4,30.10,WSW,250,0.0,2.0,46,0.00,,---,0.01,0.00,VWS V14.01,2013-02-01 00:31:00,
2013-01-31 19:36:00,45.8,26.2,30.11,WSW,250,0.0,2.0,46,0.00,,---,0.01,0.00,VWS V14.01,2013-02-01 00:36:00,
2013-01-31 19:41:00,45.6,26.0,30.11,WSW,250,0.0,2.0,46,0.00,,---,0.01,0.00,VWS V14.01,2013-02-01 00:41:00,
2013-01-31 19:46:00,45.4,26.4,30.11,WSW,250,0.0,1.0,47,0.00,,---,0.01,0.00,VWS V14.01,2013-02-01 00:46:00,
2013-01-31 19:51:00,45.1,26.6,30.11,WSW,250,0.0,3.0,48,0.00,,---,0.01,0.00,VWS V14.01,2013-02-01 00:51:00,
2013-01-31 19:56:00,44.9,26.9,30.11,WSW,248,2.0,3.0,49,0.00,,---,0.01,0.00,VWS V14.01,2013-02-01 00:56:00,
2013-01-31 20:01:00,44.7,26.7,30.11,WSW,246,3.0,3.0,49,0.00,,---,0.01,0.00,VWS V14.01,2013-02-01 01:01:00,
2013-01-31 20:06:00,44.5,26.5,30.11,WSW,244,0.0,0.0,49,0.00,,---,0.01,0.00,VWS V14.01,2013-02-01 01:06:00,
2013-01-31 20:12:00,44.3,27.3,30.12,WSW,237,0.0,0.0,51,0.00,,---,0.01,0.00,VWS V14.01,2013-02-01 01:12:00,
2013-01-31 20:17:00,44.2,27.2,30.12,WSW,237,0.0,0.0,51,0.00,,---,0.01,0.00,VWS V14.01,2013-02-01 01:17:00,
2013-01-31 20:22:00,44.0,27.0,30.12,WSW,237,3.0,3.0,51,0.00,,---,0.01,0.00,VWS V14.01,2013-02-01 01:22:00,
2013-01-31 20:27:00,43.9,27.4,30.12,WSW,238,1.0,3.0,52,0.00,,---,0.01,0.00,VWS V14.01,2013-02-01 01:27:00,
2013-01-31 20:32:00,43.7,27.2,30.13,WSW,238,0.0,0.0,52,0.00,,---,0.01,0.00,VWS V14.01,2013-02-01 01:32:00,
2013-01-31 20:37:00,43.5,27.1,30.13,WSW,237,3.0,3.0,52,0.00,,---,0.01,0.00,VWS V14.01,2013-02-01 01:37:00,
2013-01-31 20:42:00,43.3,27.3,30.13,SW,235,1.0,1.0,53,0.00,,---,0.01,0.00,VWS V14.01,2013-02-01 01:42:00,
2013-01-31 20:47:00,43.1,27.6,30.13,SW,235,0.0,4.0,54,0.00,,---,0.01,0.00,VWS V14.01,2013-02-01 01:47:00,
2013-01-31 20:52:00,43.0,27.5,30.13,SW,233,4.0,4.0,54,0.00,,---,0.01,0.00,VWS V14.01,2013-02-01 01:52:00,
2013-01-31 20:57:00,42.8,27.3,30.13,SW,233,3.0,3.0,54,0.00,,---,0.01,0.00,VWS V14.01,2013-02-01 01:57:00,
2013-01-31 21:02:00,42.7,27.2,30.13,SW,233,0.0,2.0,54,0.00,,---,0.01,0.00,VWS V14.01,2013-02-01 02:02:00,
2013-01-31 21:07:00,42.5,27.9,30.14,SW,234,1.0,3.0,56,0.00,,---,0.01,0.00,VWS V14.01,2013-02-01 02:07:00,
2013-01-31 21:12:00,42.4,27.8,30.14,SW,234,0.0,0.0,56,0.00,,---,0.01,0.00,VWS V14.01,2013-02-01 02:12:00,
2013-01-31 21:17:00,42.2,27.2,30.14,SW,236,4.0,5.0,55,0.00,,---,0.01,0.00,VWS V14.01,2013-02-01 02:17:00,
2013-01-31 21:22:00,42.2,27.2,30.14,SW,236,0.0,1.0,55,0.00,,---,0.01,0.00,VWS V14.01,2013-02-01 02:22:00,
2013-01-31 21:27:00,42.1,27.5,30.15,SW,236,0.0,0.0,56,0.00,,---,0.01,0.00,VWS V14.01,2013-02-01 02:27:00,
2013-01-31 21:32:00,42.0,27.5,30.15,SW,236,0.0,3.0,56,0.00,,---,0.01,0.00,VWS V14.01,2013-02-01 02:32:00,
2013-01-31 21:37:00,41.9,27.4,30.15,SW,234,0.0,0.0,56,0.00,,---,0.01,0.00,VWS V14.01,2013-02-01 02:37:00,
2013-01-31 21:42:00,41.8,27.7,30.15,SW,223,3.0,4.0,57,0.00,,---,0.01,0.00,VWS V14.01,2013-02-01 02:42:00,
2013-01-31 21:47:00,41.7,27.6,30.15,SW,225,1.0,4.0,57,0.00,,---,0.01,0.00,VWS V14.01,2013-02-01 02:47:00,
2013-01-31 21:52:00,41.7,27.6,30.15,SW,231,4.0,4.0,57,0.00,,---,0.01,0.00,VWS V14.01,2013-02-01 02:52:00,
2013-01-31 21:57:00,41.7,27.6,30.15,SW,232,2.0,4.0,57,0.00,,---,0.01,0.00,VWS V14.01,2013-02-01 02:57:00,
2013-01-31 22:02:00,41.6,27.9,30.16,SW,236,2.0,4.0,58,0.00,,---,0.01,0.00,VWS V14.01,2013-02-01 03:02:00,
2013-01-31 22:07:00,41.6,27.9,30.16,WSW,242,2.0,4.0,58,0.00,,---,0.01,0.00,VWS V14.01,2013-02-01 03:07:00,
2013-01-31 22:12:00,41.5,27.8,30.16,WSW,254,6.0,7.0,58,0.00,,---,0.01,0.00,VWS V14.01,2013-02-01 03:12:00,
2013-01-31 22:18:00,41.5,27.8,30.16,WSW,246,3.0,6.0,58,0.00,,---,0.01,0.00,VWS V14.01,2013-02-01 03:18:00,
2013-01-31 22:23:00,41.5,27.8,30.17,WSW,244,4.0,6.0,58,0.00,,---,0.01,0.00,VWS V14.01,2013-02-01 03:23:00,
2013-01-31 22:28:00,41.5,27.8,30.17,WSW,250,3.0,5.0,58,0.00,,---,0.01,0.00,VWS V14.01,2013-02-01 03:28:00,
2013-01-31 22:33:00,41.6,27.9,30.17,WSW,248,1.0,2.0,58,0.00,,---,0.01,0.00,VWS V14.01,2013-02-01 03:33:00,
2013-01-31 22:38:00,41.5,27.4,30.17,WSW,247,3.0,5.0,57,0.00,,---,0.01,0.00,VWS V14.01,2013-02-01 03:38:00,
2013-01-31 22:43:00,41.5,27.8,30.17,WSW,247,3.0,3.0,58,0.00,,---,0.01,0.00,VWS V14.01,2013-02-01 03:43:00,
2013-01-31 22:48:00,41.4,27.8,30.17,WSW,246,0.0,3.0,58,0.00,,---,0.01,0.00,VWS V14.01,2013-02-01 03:48:00,
2013-01-31 22:53:00,41.4,27.8,30.17,WSW,244,3.0,4.0,58,0.00,,---,0.01,0.00,VWS V14.01,2013-02-01 03:53:00,
2013-01-31 22:58:00,41.4,27.8,30.17,WSW,247,1.0,4.0,58,0.00,,---,0.01,0.00,VWS V14.01,2013-02-01 03:58:00,
2013-01-31 23:03:00,41.4,27.3,30.17,WSW,249,0.0,4.0,57,0.00,,---,0.01,0.00,VWS V14.01,2013-02-01 04:03:00,
2013-01-31 23:08:00,41.5,27.8,30.18,WSW,240,0.0,4.0,58,0.00,,---,0.01,0.00,VWS V14.01,2013-02-01 04:08:00,
2013-01-31 23:13:00,41.4,27.3,30.17,WSW,255,3.0,4.0,57,0.00,,---,0.01,0.00,VWS V14.01,2013-02-01 04:13:00,
2013-01-31 23:18:00,41.4,27.3,30.18,WSW,247,1.0,4.0,57,0.00,,---,0.01,0.00,VWS V14.01,2013-02-01 04:18:00,
2013-01-31 23:23:00,41.4,27.3,30.17,WSW,246,0.0,3.0,57,0.00,,---,0.01,0.00,VWS V14.01,2013-02-01 04:23:00,
2013-01-31 23:28:00,41.4,27.3,30.17,WSW,246,1.0,4.0,57,0.00,,---,0.01,0.00,VWS V14.01,2013-02-01 04:28:00,
2013-01-31 23:33:00,41.4,27.3,30.18,SW,236,2.0,4.0,57,0.00,,---,0.01,0.00,VWS V14.01,2013-02-01 04:33:00,
2013-01-31 23:39:00,41.4,27.3,30.18,WSW,242,2.0,5.0,57,0.00,,---,0.01,0.00,VWS V14.01,2013-02-01 04:39:00,
2013-01-31 23:44:00,41.3,27.6,30.18,WSW,246,4.0,4.0,58,0.00,,---,0.01,0.00,VWS V14.01,2013-02-01 04:44:00,
2013-01-31 23:49:00,41.3,27.2,30.18,WSW,250,2.0,4.0,57,0.00,,---,0.01,0.00,VWS V14.01,2013-02-01 04:49:00,
2013-01-31 23:54:00,41.2,27.6,30.17,WSW,246,5.0,6.0,58,0.00,,---,0.01,0.00,VWS V14.01,2013-02-01 04:54:00,
2013-01-31 23:59:00,41.2,27.6,30.17,WSW,254,4.0,4.0,58,0.00,,---,0.01,0.00,VWS V14.01,2013-02-01 04:59:00,